Meteo Giornale » Osservazioni meteo Stati Uniti (USA) » Culpeper

ore: 15:15 - Osservazioni Meteo Culpeper
Lat. 38° 31' N Lon. 77° 51' W Alt. 95 metri s.l.m.

sereno

30 °C

Sereno

Temp. 24 Ore

20 °C

32 °C

Nord

0 Km/h

Dew point 22 °C

Umidità 62 %

Visibilità  10 Km

Il sole sorge alle ore 06:40

Il sole tramonta alle ore 19:43

Data e Ora Cielo e Fenomeni T °C DP °C Um. % Pres. hPa Vis. km Vento km/h
Oggi h: 15:15 sereno Sereno 30 22 62 1019 10 N 0
Oggi h: 14:55 sereno Sereno 30 21 58 1019 10 N 0
Oggi h: 14:35 sereno Sereno 31 21 55 1019 10 N 5.5
Oggi h: 14:15 sereno Sereno 31 21 55 1019 10 N 0
Oggi h: 13:55 sereno Sereno 31 21 55 1019 10 N 5.5
Oggi h: 13:35 sereno Sereno 31 21 55 1020 10 N 0
Oggi h: 13:15 sereno Sereno 31 21 55 1019 10 N 0
Oggi h: 12:55 nuvoloso Nuvoloso 30 21 58 1020 10 N 0
Oggi h: 12:35 nuvoloso Nuvoloso 31 21 55 1020 10 N 0
Oggi h: 12:15 nuvoloso Nuvoloso 30 21 58 1020 10 N 7.4
Oggi h: 11:55 sereno Sereno 30 21 58 1020 10 N 5.5
Oggi h: 11:35 nuvoloso Nuvoloso 30 21 58 1020 10 N 7.4
Oggi h: 11:15 sereno Sereno 30 21 58 1020 10 N 0
Oggi h: 10:55 sereno Sereno 29 21 62 1020 10 N 0
Oggi h: 10:35 sereno Sereno 28 21 65 1020 10 N 5.5
Oggi h: 10:15 sereno Sereno 28 21 65 1020 10 N 7.4
Oggi h: 09:55 sereno Sereno 27 21 69 1020 10 N 11.1
Oggi h: 09:35 sereno Sereno 27 21 69 1020 10 N 7.4
Oggi h: 09:15 sereno Sereno 26 21 73 1020 10 N 5.5
Oggi h: 08:55 sereno Sereno 25 21 78 1020 10 N 0
Oggi h: 08:35 sereno Sereno 23 21 88 1020 10 N 0
Oggi h: 08:15 sereno Sereno 22 21 94 1020 10 N 0
Oggi h: 07:55 sereno Sereno 21 20 94 1020 11 N 0
Oggi h: 07:35 foschia Foschia 20 19 93 1020 8 N 0
Oggi h: 07:15 foschia Foschia 20 19 93 1020 8 N 0
Oggi h: 06:55 foschia Foschia 20 19 93 1019 2 N 0
Oggi h: 06:35 foschia Foschia 20 19 93 1019 8 N 0
Oggi h: 06:15 sereno Sereno 20 19 93 1019 11 N 0
Oggi h: 05:55 sereno Sereno 20 19 93 1019 11 N 0
Oggi h: 05:35 sereno Sereno 20 19 93 1019 11 N 0
Oggi h: 05:15 sereno Sereno 20 20 100 1019 11 N 0
Oggi h: 04:55 foschia Foschia 20 19 93 1019 2 N 0
Oggi h: 04:35 sereno Sereno 20 19 93 1019 11 N 0
Oggi h: 04:15 foschia Foschia 20 19 93 1019 2 N 0
Oggi h: 03:55 nebbia Nebbia 20 19 93 1019 2 N 0
Oggi h: 03:35 foschia Foschia 20 19 93 1019 2 N 0
Oggi h: 03:15 foschia Foschia 20 19 93 1019 2 N 0
Oggi h: 02:55 nebbia Nebbia 21 20 94 1019 2 N 0
Oggi h: 02:35 foschia Foschia 21 20 94 1019 5 N 0
Oggi h: 02:15 foschia Foschia 21 20 94 1019 2 N 0
Oggi h: 01:55 sereno Sereno 21 20 94 1019 11 N 0
Oggi h: 01:35 sereno Sereno 22 20 88 1019 11 N 0
Oggi h: 01:15 sereno Sereno 22 21 94 1019 10 N 0
Oggi h: 00:55 sereno Sereno 22 21 94 1019 10 N 0
Oggi h: 00:35 sereno Sereno 22 21 94 1019 10 N 0
Oggi h: 00:15 sereno Sereno 23 21 88 1019 10 N 0
Ieri h: 23:55 sereno Sereno 23 21 88 1019 10 N 0
Ieri h: 23:35 sereno Sereno 22 21 94 1020 10 N 5.5
Ieri h: 23:15 sereno Sereno 22 21 94 1020 10 N 0
Ieri h: 22:55 nuvoloso Nuvoloso 23 21 88 1020 10 N 0
Ieri h: 22:35 coperto Coperto 23 21 88 1020 10 N 0
Ieri h: 22:15 coperto Coperto 23 21 88 1020 10 N 0
Ieri h: 21:55 coperto_pioggia Pioggia 24 20 78 1020 10 N 0
Ieri h: 21:35 coperto Coperto 24 20 78 1020 10 N 5.5
Ieri h: 21:15 coperto Coperto 23 21 88 1020 10 N 0
Ieri h: 20:55 coperto Coperto 23 21 88 1020 10 N 0
Ieri h: 20:35 molto_nuvoloso Molto Nuvoloso 23 21 88 1020 10 N 0
Ieri h: 20:15 molto_nuvoloso Molto Nuvoloso 24 21 83 1019 10 N 0
Ieri h: 19:55 nuvoloso Nuvoloso 24 21 83 1019 10 N 0
Ieri h: 19:35 molto_nuvoloso Molto Nuvoloso 25 21 78 1019 10 N 0
Ieri h: 19:15 molto_nuvoloso Molto Nuvoloso 25 20 73 1019 10 N 0
Ieri h: 18:55 coperto Coperto 25 20 73 1019 10 N 0
Ieri h: 18:35 coperto Coperto 25 21 78 1019 10 N 0
Ieri h: 18:15 coperto Coperto 25 21 78 1019 10 SO 14.8
Ieri h: 17:55 coperto_pioggia Pioviggine 25 20 73 1019 10 S/SO 9.3
Ieri h: 17:35 coperto Coperto 29 20 58 1019 10 O 14.8
Ieri h: 17:15 molto_nuvoloso Molto Nuvoloso 30 20 55 1019 10 N 5.5
Ieri h: 16:55 nuvoloso Nuvoloso 30 21 58 1019 10 N 0
Ieri h: 16:35 sereno Sereno 31 20 52 1018 10 S 9.3
Ieri h: 16:15 sereno Sereno 32 20 49 1019 10 N 5.5
Ieri h: 15:55 nuvoloso Nuvoloso 31 20 52 1019 10 S 7.4
Ieri h: 15:35 nuvoloso Nuvoloso 32 20 49 1019 10 S 14.8